sat.trackr.live / text

‹ back to catalog

ENMAP

NORAD 52159 · 2022-033C

PAYLOAD ACTIVE UNKNOWN

§ Identity

Operator
Country
GER
Launch date
2022-04-01
Launch site
AFETR
Launch vehicle
Mass (kg)
RCS (m²)

External: N2YO · Heavens-Above · Gunter

§ Orbital elements

Epoch: 2026-09-20T22:54:39.078144Z

Period
97.63 min
Inclination
97.9768°
Eccentricity
0.0001626
Mean motion
14.74988817 rev/d
Perigee alt
644.0 km
Apogee alt
646.3 km
Semi-major
7,023.3 km
B*
2.9893e-5
RAAN
344.8270°
Arg perigee
86.5542°
Mean anomaly
273.5853°
Rev number
24,077

§ Raw data

ENMAP1 52159U 22033C   26263.95461896  .00000151  00000+0  29893-4 0  99902 52159  97.9768 344.8270 0001626  86.5542 273.5853 14.74988817240773

JSON: /api/v1/satellites/52159 · /tle

For live sub-satellite position, see the globe view (requires WebGL).

§ Visibility from observer

Set your observer location to see the next 7 days of passes ≥ 10°. The values pass through the URL so the page stays shareable.

No JS? Fill the form by hand. The geolocation button needs JavaScript.

§ Radio — SatNOGS DB

ModeDescriptionDownlinkUplink
BPSK S band telemetry 2.268 GHz

1 transmitter · refreshed weekly from db.satnogs.org